TimeEST,TemperatureF,Dew PointF,Humidity,Sea Level PressureIn,VisibilityMPH,Wind Direction,Wind SpeedMPH,Gust SpeedMPH,PrecipitationIn,Events,Conditions,WindDirDegrees,DateUTC
12:18 AM,53.6,48.2,82,30.13,4.0,ESE,4.6,-,0.00,Rain,Light Rain,120,2014-02-01 05:18:00
12:53 AM,54.0,48.9,83,30.15,8.0,Calm,Calm,-,0.00,Rain,Light Rain,0,2014-02-01 05:53:00
1:42 AM,53.6,50.0,88,30.12,2.0,Calm,Calm,-,0.01,Rain,Light Rain,0,2014-02-01 06:42:00
1:48 AM,53.6,50.0,88,30.12,3.0,Calm,Calm,-,0.01,Rain,Light Rain,0,2014-02-01 06:48:00
1:49 AM,54.0,50.0,86,30.14,3.0,Calm,Calm,-,0.01,Rain,Light Rain,0,2014-02-01 06:49:00
2:00 AM,53.6,50.0,88,30.11,5.0,East,3.5,-,0.00,Rain,Light Rain,100,2014-02-01 07:00:00
2:16 AM,53.6,50.0,88,30.11,2.5,East,3.5,-,0.01,Rain,Rain,100,2014-02-01 07:16:00
2:25 AM,53.6,50.0,88,30.10,2.5,Calm,Calm,-,0.03,Rain,Light Rain,0,2014-02-01 07:25:00
2:35 AM,53.6,50.0,88,30.11,6.0,Calm,Calm,-,0.03,Rain,Light Rain,0,2014-02-01 07:35:00
2:38 AM,53.6,50.0,88,30.10,9.0,East,3.5,-,0.03,,Overcast,90,2014-02-01 07:38:00
2:53 AM,54.0,50.0,86,30.13,5.0,East,3.5,-,0.03,,Overcast,100,2014-02-01 07:53:00
3:14 AM,53.6,50.0,88,30.10,5.0,ENE,3.5,-,N/A,,Overcast,60,2014-02-01 08:14:00
3:53 AM,54.0,50.0,86,30.10,9.0,NE,3.5,-,N/A,,Overcast,50,2014-02-01 08:53:00
4:09 AM,53.6,50.0,88,30.08,9.0,Calm,Calm,-,N/A,,Overcast,0,2014-02-01 09:09:00
4:26 AM,53.6,50.0,88,30.09,5.0,NE,3.5,-,N/A,,Overcast,40,2014-02-01 09:26:00
4:50 AM,53.6,50.0,88,30.09,2.0,NNE,3.5,-,0.00,Rain,Light Rain,20,2014-02-01 09:50:00
4:53 AM,54.0,50.0,86,30.12,2.0,NNE,3.5,-,0.00,Rain,Light Rain,20,2014-02-01 09:53:00
5:07 AM,53.6,50.0,88,30.09,2.0,NE,3.5,-,0.01,Rain,Light Rain,40,2014-02-01 10:07:00
5:42 AM,53.6,51.8,94,30.10,3.0,Calm,Calm,-,0.01,Rain,Light Rain,0,2014-02-01 10:42:00
5:53 AM,54.0,51.1,90,30.13,4.0,Calm,Calm,-,0.01,Rain,Light Rain,0,2014-02-01 10:53:00
6:24 AM,53.6,50.0,88,30.11,2.5,NNE,3.5,-,0.01,Rain,Light Rain,20,2014-02-01 11:24:00
6:31 AM,53.6,50.0,88,30.12,3.0,NNE,4.6,-,0.01,Rain,Light Rain,20,2014-02-01 11:31:00
6:53 AM,54.0,50.0,86,30.15,4.0,North,3.5,-,0.01,Rain,Light Rain,10,2014-02-01 11:53:00
7:36 AM,53.6,51.8,94,30.12,6.0,Calm,Calm,-,0.01,,Overcast,0,2014-02-01 12:36:00
7:53 AM,54.0,50.0,86,30.14,2.5,Calm,Calm,-,0.01,,Overcast,0,2014-02-01 12:53:00
8:08 AM,53.6,51.8,94,30.12,6.0,Calm,Calm,-,N/A,,Overcast,0,2014-02-01 13:08:00
8:53 AM,55.0,51.1,86,30.17,10.0,North,4.6,-,N/A,,Overcast,360,2014-02-01 13:53:00
9:29 AM,55.4,51.8,88,30.15,1.8,ENE,3.5,-,N/A,,Overcast,60,2014-02-01 14:29:00
9:53 AM,55.9,52.0,87,30.18,1.8,East,4.6,-,N/A,,Overcast,100,2014-02-01 14:53:00
10:03 AM,55.4,51.8,88,30.16,2.5,Calm,Calm,-,N/A,,Overcast,0,2014-02-01 15:03:00
10:13 AM,55.4,53.6,94,30.16,3.0,ENE,3.5,-,N/A,,Overcast,60,2014-02-01 15:13:00
10:53 AM,57.0,53.1,87,30.18,5.0,Calm,Calm,-,N/A,,Overcast,0,2014-02-01 15:53:00
11:53 AM,60.1,55.0,83,30.15,8.0,Calm,Calm,-,N/A,,Overcast,0,2014-02-01 16:53:00
12:53 PM,60.1,55.9,86,30.15,5.0,Calm,Calm,-,N/A,,Overcast,0,2014-02-01 17:53:00
1:18 PM,60.8,55.4,82,30.11,2.0,Calm,Calm,-,N/A,,Overcast,0,2014-02-01 18:18:00
1:39 PM,60.8,55.4,82,30.11,4.0,Calm,Calm,-,N/A,,Haze,0,2014-02-01 18:39:00
1:53 PM,61.0,55.9,83,30.14,4.0,Calm,Calm,-,N/A,,Haze,0,2014-02-01 18:53:00
2:16 PM,60.8,57.2,88,30.10,1.8,Calm,Calm,-,N/A,,Overcast,0,2014-02-01 19:16:00
2:53 PM,62.1,57.0,84,30.12,1.8,Calm,Calm,-,N/A,,Haze,0,2014-02-01 19:53:00
3:21 PM,62.6,57.2,82,30.09,2.5,Calm,Calm,-,N/A,,Haze,0,2014-02-01 20:21:00
3:30 PM,62.6,57.2,82,30.09,3.0,Calm,Calm,-,N/A,,Overcast,0,2014-02-01 20:30:00
3:53 PM,62.1,57.9,86,30.12,3.0,Calm,Calm,-,N/A,,Overcast,0,2014-02-01 20:53:00
4:33 PM,62.6,57.2,82,30.10,1.8,Calm,Calm,-,N/A,,Overcast,0,2014-02-01 21:33:00
4:53 PM,62.1,57.9,86,30.13,0.8,Calm,Calm,-,N/A,,Overcast,0,2014-02-01 21:53:00
5:05 PM,62.6,57.2,82,30.11,1.0,Calm,Calm,-,N/A,,Overcast,0,2014-02-01 22:05:00
5:53 PM,62.1,57.9,86,30.14,1.0,Calm,Calm,-,0.01,,Overcast,0,2014-02-01 22:53:00
6:05 PM,60.8,57.2,88,30.12,0.8,Calm,Calm,-,N/A,,Overcast,0,2014-02-01 23:05:00
6:26 PM,60.8,57.2,88,30.12,1.2,Calm,Calm,-,N/A,,Overcast,0,2014-02-01 23:26:00
6:53 PM,61.0,57.9,90,30.15,1.2,Calm,Calm,-,N/A,,Overcast,0,2014-02-01 23:53:00
7:53 PM,61.0,57.0,87,30.16,1.5,Calm,Calm,-,N/A,,Overcast,0,2014-02-02 00:53:00
8:53 PM,60.1,57.0,90,30.17,1.5,North,3.5,-,N/A,,Overcast,10,2014-02-02 01:53:00
9:14 PM,60.8,57.2,88,30.14,2.0,Calm,Calm,-,N/A,,Overcast,0,2014-02-02 02:14:00
9:53 PM,60.1,57.0,90,30.17,3.0,Calm,Calm,-,N/A,,Overcast,0,2014-02-02 02:53:00
10:42 PM,60.8,57.2,88,30.15,2.5,Calm,Calm,-,N/A,,Overcast,0,2014-02-02 03:42:00
10:53 PM,60.1,55.9,86,30.18,2.5,Calm,Calm,-,N/A,,Overcast,0,2014-02-02 03:53:00
11:42 PM,59.0,55.4,88,30.16,1.5,North,3.5,-,N/A,,Overcast,10,2014-02-02 04:42:00
11:53 PM,59.0,55.9,90,30.19,2.0,NNE,4.6,-,N/A,,Overcast,20,2014-02-02 04:53:00